• Processing (Info)

  • MPEC 2006-O32 : 2006 OC5

    The following Minor Planet Electronic Circular may be linked-to from your own Web pages, but must not otherwise be redistributed electronically.

    A form allowing access to any MPEC is at the bottom of this page.


    Read MPEC 2006-O31 Read MPEC 2006-O33


    M.P.E.C. 2006-O32                                Issued 2006 July 23, 03:59 UT
    
         The Minor Planet Electronic Circulars contain information on unusual
             minor planets and routine data on comets.  They are published
       on behalf of Commission 20 of the International Astronomical Union by the
              Minor Planet Center, Smithsonian Astrophysical Observatory,
                              Cambridge, MA 02138, U.S.A.
    
                      Supported in part by the Brinson Foundation
                      Supported in part by the TABASGO Foundation
                 Prepared using the Tamkin Foundation Computer Network
    
                                  MPC@CFA.HARVARD.EDU
              URL http://cfa-www.harvard.edu/iau/mpc.html  ISSN 1523-6714
    
                                       2006 OC5
    
    Observations:
         K06O05C* C2006 07 21.32985 22 02 34.83 -05 10 24.6          18.6 V EO032703
         K06O05C  C2006 07 21.33635 22 02 35.48 -05 10 21.1          18.6 V EO032703
         K06O05C  C2006 07 21.34281 22 02 36.09 -05 10 17.6          18.6 V EO032703
         K06O05C  C2006 07 21.34927 22 02 36.78 -05 10 13.9          18.5 V EO032703
         K06O05C  C2006 07 21.38042 22 02 39.87 -05 09 57.5          18.7 V EO032703
         K06O05C  C2006 07 21.38926 22 02 40.81 -05 09 53.1          18.3 V EO032703
         K06O05C  C2006 07 21.39810 22 02 41.67 -05 09 48.0          18.6 V EO032703
         K06O05C  C2006 07 21.40700 22 02 42.64 -05 09 43.3          18.6 V EO032703
         K06O05C  C2006 07 21.45773 22 02 47.84 -05 09 15.5          18.5 V EO032703
         K06O05C  C2006 07 21.45927 22 02 47.90 -05 09 15.1          19.0 V EO032703
         K06O05C  C2006 07 21.46074 22 02 48.10 -05 09 14.0          18.5 V EO032703
         K06O05C  C2006 07 21.46225 22 02 48.29 -05 09 13.7          18.2 V EO032703
         K06O05C  C2006 07 21.94102 22 03 42.67 -05 05 00.4          18.6 V EO032198
         K06O05C  C2006 07 21.94480 22 03 43.08 -05 04 58.7          18.8 V EO032198
         K06O05C  C2006 07 21.94528 22 03 43.13 -05 04 58.5          18.8 V EO032198
         K06O05C  C2006 07 21.94859 22 03 43.50 -05 04 57.0          18.7 V EO032198
         K06O05C  C2006 07 21.97754 22 03 46.78 -05 04 39.4          18.7 R EO032A06
         K06O05C  C2006 07 21.98875 22 03 47.98 -05 04 34.3          17.6 R EO032A06
         K06O05C  C2006 07 22.00007 22 03 49.16 -05 04 28.6          17.3 R EO032A06
         K06O05C  C2006 07 22.22470 22 04 13.82 -05 02 03.9          18.4 R EO032I77
         K06O05C  C2006 07 22.23040 22 04 14.40 -05 02 00.8          18.5 R EO032I77
         K06O05C  C2006 07 22.23611 22 04 14.97 -05 01 57.7          18.4 R EO032I77
         K06O05C  C2006 07 22.30773 22 04 24.02 -05 01 38.7          18.5 V EO032G96
         K06O05C  C2006 07 22.30901 22 04 24.13 -05 01 38.2          18.5 V EO032G96
         K06O05C  C2006 07 22.31027 22 04 24.27 -05 01 37.5          18.5 V EO032G96
         K06O05C  C2006 07 22.31154 22 04 24.42 -05 01 36.7          18.5 V EO032G96
         K06O05C  C2006 07 22.33502 22 04 26.58 -05 01 26.2          18.8 R EO032734
         K06O05C  C2006 07 22.33648 22 04 26.72 -05 01 25.5          18.8 R EO032734
         K06O05C  C2006 07 22.33795 22 04 26.86 -05 01 24.8          18.8 R EO032734
         K06O05C  C2006 07 22.33941 22 04 27.03 -05 01 24.0          18.9 R EO032734
         K06O05C  C2006 07 22.34087 22 04 27.18 -05 01 23.1          18.9 R EO032734
         K06O05C  C2006 07 22.34234 22 04 27.34 -05 01 22.2          18.7 R EO032734
         K06O05C  C2006 07 22.57483 22 04 54.53 -04 58 47.2          18.7 R EO032423
         K06O05C  C2006 07 22.59954 22 04 57.21 -04 58 35.2          18.0 R EO032423
         K06O05C  C2006 07 22.97787 22 05 41.04 -04 55 38.9                 EO032J95
         K06O05C  C2006 07 22.98209 22 05 41.52 -04 55 36.9                 EO032J95
         K06O05C  C2006 07 22.98632 22 05 41.96 -04 55 34.1          18.7 R EO032J95
         K06O05C  C2006 07 23.01634 22 05 45.05 -04 55 17.1          18.8 V EO032A44
         K06O05C  C2006 07 23.04184 22 05 47.87 -04 55 03.3          18.7 V EO032A44
         K06O05C  C2006 07 23.04956 22 05 48.70 -04 54 59.0          18.9 V EO032A44
    
    Observer details:
    198 Wildberg.  Observer R. Apitzsch.  0.35-m f/4.2 reflector + CCD.
    423 North Ryde.  Observer S. G. McAndrew.  0.20-m f/4 hyperbolic astrograph
        + CCD.
    703 Catalina Sky Survey.  Observer R. Hill.  Measurers E. C. Beshore,
        E. J. Christensen, G. J. Garradd, A. R. Gibbs, A. D. Grauer, R. E. Hill,
        R. A. Kowalski, S. M. Larson, R. H. McNaught.  0.68-m Schmidt + CCD.
    734 Farpoint Observatory.  Observer G. Hug.  0.7-m reflector + CCD.
    A06 Mataro.  Observers R. Lazaro, E. Cortes.  Measurer E. Cortes.  0.25-m
        f/3.6 Schmidt-Cassegrain + CCD.
    A44 Altschwendt.  Observer W. Ries.  0.45-m f/3.5 reflector + CCD.
    G96 Mt. Lemmon Survey.  Observer E. J. Christensen.  Measurers E. C. Beshore,
        E. J. Christensen, G. J. Garradd, A. R. Gibbs, A. D. Grauer, R. E. Hill,
        R. A. Kowalski, S. M. Larson, R. H. McNaught.  1.5-m reflector + CCD.
    I77 CEAMIG-REA Observatory, Belo Horizonte.  Observers C. Jacques, E. Pimentel.
        Measurer C. Jacques.  0.30-m f/3.0 Schmidt-Cassegrain + CCD.
    J95 Great Shefford.  Observer P. Birtwhistle.  0.40-m f/6.0 Schmidt-Cassegrain
        + CCD.
    
    Orbital elements:
    2006 OC5                                            PHA, Earth MOID = 0.0150 AU
    Epoch 2006 Sept. 22.0 TT = JDT 2454000.5                MPC
    M 356.53863              (2000.0)            P               Q
    n   0.25899738     Peri.  244.85113     +0.82393846     -0.56512918
    a   2.4374692      Node   149.50903     +0.54510172     +0.77019479
    e   0.6541159      Incl.    4.73512     +0.15488552     +0.29568394
    P   3.81           H   19.1           G   0.15           U   8
    Residuals in seconds of arc
    060721 703  0.9+  0.4-    060721 198  0.3-  0.6+    060722 734  0.3-  0.1-
    060721 703  0.7+  0.4-    060721 198  0.0   0.3+    060722 734  0.1-  0.1-
    060721 703  0.1-  0.3-    060721 A06  0.1+  0.5+    060722 734  0.2-  0.0
    060721 703  0.4+  0.0     060721 A06  0.2+  0.4-    060722 734  0.1-  0.1+
    060721 703  0.8-  0.2-    060722 A06  0.0   0.7-    060722 423  0.0   0.7+
    060721 703  0.2-  0.5-    060722 I77  0.7+  0.1-    060722 423  0.4+  0.6-
    060721 703  0.7-  0.1-    060722 I77  0.5+  0.1-    060722 J95  0.1+  0.0
    060721 703  0.2+  0.1-    060722 I77  0.2+  0.1-    060722 J95  0.3+  0.3-
    060721 703  0.5+  0.5+    060722 G96  0.0   0.1+    060722 J95  0.2-  0.2+
    060721 703  0.9-  0.1+    060722 G96  0.4-  0.0     060723 A44  0.3-  0.2+
    060721 703  0.2-  0.4+    060722 G96  0.3-  0.0     060723 A44  0.1-  0.0
    060721 703  0.3+  0.1-    060722 G96  0.1-  0.1+    060723 A44  0.4-  0.1+
    060721 198  0.3-  0.9+    060722 734  0.1+  0.1+
    060721 198  0.3-  0.6+    060722 734  0.1-  0.0
    
    Ephemeris:
    2006 OC5                 a,e,i = 2.44, 0.65, 5                   q = 0.8431
    Date    TT    R. A. (2000) Decl.     Delta      r     Elong.  Phase     V
    2006 07 14    21 50.55   -06 12.1    0.473    1.424   143.2    25.3    19.4
    2006 07 24    22 07.70   -04 45.9    0.353    1.329   148.1    23.8    18.6
    2006 08 03    22 33.93   -02 56.6    0.244    1.234   150.9    23.5    17.6
    2006 08 13    23 27.72   +00 13.2    0.150    1.142   147.2    28.7    16.5
    2006 08 23    01 59.82   +07 38.7    0.0860   1.056   119.0    56.9    15.9
    2006 09 02    05 59.78   +11 37.0    0.105    0.978    69.8   104.4    18.0
    2006 09 12    07 41.20   +09 45.5    0.181    0.913    54.4   116.3    19.8
    2006 09 22    08 26.32   +08 25.6    0.271    0.867    52.7   112.9    20.3
    2006 10 02    08 56.58   +07 24.2    0.364    0.845    54.7   104.7    20.4
    2006 10 12    09 22.26   +06 23.4    0.456    0.849    57.9    95.0    20.4
    2006 10 22    09 45.87   +05 17.3    0.541    0.880    61.8    85.5    20.5
    2006 11 01    10 07.47   +04 08.8    0.614    0.932    66.1    76.8    20.6
    2006 11 11    10 26.62   +03 03.5    0.673    1.002    71.2    69.3    20.7
    2006 11 21    10 42.75   +02 07.9    0.716    1.083    77.1    62.8    20.8
    2006 12 01    10 55.28   +01 28.9    0.744    1.172    84.1    56.8    20.9
    2006 12 11    11 03.73   +01 12.5    0.758    1.265    92.1    51.1    20.9
    2006 12 21    11 07.56   +01 24.4    0.763    1.360   101.5    45.2    20.9
    2006 12 31    11 06.26   +02 09.8    0.763    1.455   112.2    38.7    20.9
    2007 01 10    10 59.65   +03 30.8    0.764    1.549   124.5    31.6    20.8
    2007 01 20    10 48.04   +05 24.7    0.774    1.643   138.1    23.6    20.7
    2007 01 30    10 32.65   +07 41.0    0.800    1.735   152.6    15.1    20.6
    2007 02 09    10 15.63   +10 01.9    0.849    1.825   167.5     6.7    20.6
    2007 02 19    09 59.42   +12 09.5    0.924    1.912   177.9     1.1    20.5
    2007 03 01    09 46.05   +13 51.3    1.027    1.998   164.1     7.8    21.2
    2007 03 11    09 36.60   +15 03.4    1.154    2.081   151.6    13.1    21.8
    2007 03 21    09 31.24   +15 48.0    1.302    2.163   140.1    17.2    22.3
    
    Gareth V. Williams           (C) Copyright 2006 MPC           M.P.E.C. 2006-O32
    

    Read MPEC 2006-O31 Read MPEC 2006-O33


    MPEC number:

    Enter an MPEC number in one of the following forms:

    • 1997-B01 (the full form)
    • J97B01 (the packed version of the full form)
    • B01 (the abbreviated form)